Вернуться в каталог

FENGYUN 1C DEB

АктивенSSO
NORAD 31464·DEBRIS·🇨🇳 China

Запущен May 10, 1999 с Taiyuan Satellite Launch Center

Loading…

Ближайшие Пролёты (ближайшие 24 часа)

TLE

СвежийSource: Space-Track

Эпоха: Sep 14, 2026, 08:51 UTC

1 31464U 99025BVC 26257.36876308  .00000293  00000-0  17958-3 0  9993
2 31464  98.7602 303.5644 0044020 178.5845 244.2695 14.12733548985715

Отслеживайте FENGYUN 1C DEB в реальном времени с AllMySat

Download on the App Store